DECAYED

ELECTRON KICK STAGE R/B, 68411 (Decayed)

Orbit data source: Space-Track

ELECTRON KICK STAGE R/B, 68411 was space debris in LEO originally from a launch on Sat, 28 Mar 2026 UTC launched from the Rocket Lab Launch Complex (RLLC). Debris objects in space refer to the collection of defunct objects orbiting the Earth. Examples of debris include non-operational satellites, rocket bodies, and fragments generated from explosions, collisions, or faulty payload assembly.

Not visible in the next 10 days
Identifier
68411, 2026-065D
Orbit
Decayed
Country
Flag of USUS
Related business
Manufacturer
Rocket Lab
Mission
Decayed spacecraft
Bus & Motor
KICK STAGE, CURIE
Mass
~42 kg wet, ~42 kg dry
Launch date (UTC)
2026-03-28 (3 months ago)
Launch vehicle
Unknown
Launch site
Rocket Lab Launch Complex (RLLC)
Object type
Payload
Rocket body
Debris
Shape & HBR
Unknown shape, 8.0 m
Radar Cross Section
Medium (>0.1 m² and <1 m²)

Expand to show TLE details & history
Last TLE update: 2 months ago

TLE from 2 months ago
0 ELECTRON KICK STAGE R/B
1 68411U 26065D   26106.16404788  .05715083  26561-5  15668-3 0  9995
2 68411  97.3981 350.2379 0037444 307.1011  52.6868 16.40761515  3007
Epoch: 2026-04-16T03:56Z
TLE epoch observation values (Epoch: 2026-04-16T03:56:13.736Z)
Latitude
-0.00007°
Longitude
86.86515°
Altitude
152.236 km
Speed
7.824 km/s
True Right ascension
23h 20m 57s
True Declination
0° 00' 00"
Sunlit
Object was in daylight at epoch
Visualization orbit readout
Latitude
Unknown
Longitude
Unknown
Altitude
Unknown
Speed
Unknown
Apparent Right ascension
Unknown
Apparent Declination
Unknown
Sunlit
N/A
Visualization observer readout
Local Sidereal Time
10:19:33
Azimuth
Unknown
Elevation
Unknown
Doppler factor
Unknown
Orbital elements
Apogee altitude
185.068 km
Perigee altitude
136.1 km
Semi-major axis
6,538.721 km
Eccentricity
0.00374
Inclination
97.3981°
RAAN
350.2379°
Arg. of periapsis
307.1011°
True anomaly
53.02903°
Mean anomaly
52.6868°
Eccentric anomaly
52.85782°
Mean motion
4.10491 °/min
Orbital period
87.7 mins
BSTAR
0.00015668
Loading maneuver chart data...
Computing Atmospheric mass density...
Loading historical data...
Loading historical data...
Loading historical data...
Loading historical data...
Loading historical data...
Loading historical data...
Loading historical data...
Other satellites on launch #65 in the year 2026 (2026-03-28 UTC)

Documentation

Showing up to 5 results
|